TimeCST,TemperatureF,Dew PointF,Humidity,Sea Level PressureIn,VisibilityMPH,Wind Direction,Wind SpeedMPH,Gust SpeedMPH,PrecipitationIn,Events,Conditions,WindDirDegrees,DateUTC
12:56 AM,55.9,55.0,97,30.01,0.5,East,3.5,-,N/A,Fog,Fog,90,2013-02-06 06:56:00
1:56 AM,55.9,55.0,97,30.02,0.5,Calm,Calm,-,N/A,Fog,Fog,0,2013-02-06 07:56:00
2:36 AM,57.2,55.4,94,30.05,1.0,ENE,4.6,-,N/A,,Mist,70,2013-02-06 08:36:00
2:45 AM,55.4,55.4,100,30.06,0.8,NE,3.5,-,N/A,,Mist,50,2013-02-06 08:45:00
2:56 AM,55.9,55.0,97,30.02,0.8,Calm,Calm,-,N/A,,Mist,0,2013-02-06 08:56:00
3:56 AM,55.9,54.0,93,30.03,0.5,East,3.5,-,N/A,Fog,Fog,80,2013-02-06 09:56:00
4:56 AM,55.0,54.0,96,30.04,0.5,NNE,5.8,-,0.01,Fog,Fog,20,2013-02-06 10:56:00
5:56 AM,55.0,54.0,96,30.07,0.8,ENE,3.5,-,N/A,,Mist,60,2013-02-06 11:56:00
6:56 AM,54.0,53.1,97,30.08,0.2,NE,5.8,-,N/A,Fog,Fog,50,2013-02-06 12:56:00
7:56 AM,55.0,54.0,96,30.09,0.2,NE,5.8,-,N/A,Fog,Fog,40,2013-02-06 13:56:00
8:56 AM,57.0,55.9,96,30.10,1.0,ENE,5.8,-,N/A,,Mist,60,2013-02-06 14:56:00
9:06 AM,57.2,55.4,94,30.14,3.0,ENE,4.6,-,N/A,,Overcast,60,2013-02-06 15:06:00
9:56 AM,60.1,57.0,90,30.12,10.0,East,4.6,-,N/A,,Overcast,100,2013-02-06 15:56:00
10:17 AM,60.8,57.2,88,30.15,10.0,East,8.1,-,N/A,,Overcast,90,2013-02-06 16:17:00
10:56 AM,62.1,55.9,80,30.11,10.0,ESE,5.8,-,N/A,,Overcast,110,2013-02-06 16:56:00
11:31 AM,64.4,55.4,73,30.13,10.0,ESE,3.5,-,N/A,,Partly Cloudy,120,2013-02-06 17:31:00
11:56 AM,68.0,55.9,65,30.09,10.0,ENE,5.8,-,N/A,,Partly Cloudy,70,2013-02-06 17:56:00
12:56 PM,70.0,55.9,61,30.06,10.0,Variable,4.6,-,N/A,,Scattered Clouds,0,2013-02-06 18:56:00
1:05 PM,71.6,55.4,57,30.09,10.0,ENE,6.9,-,N/A,,Mostly Cloudy,60,2013-02-06 19:05:00
1:32 PM,69.8,55.4,60,30.09,10.0,ESE,5.8,-,N/A,,Scattered Clouds,110,2013-02-06 19:32:00
1:56 PM,71.1,55.9,59,30.05,10.0,ESE,5.8,-,N/A,,Partly Cloudy,120,2013-02-06 19:56:00
2:56 PM,73.0,55.0,53,30.02,10.0,East,10.4,-,N/A,,Clear,80,2013-02-06 20:56:00
3:56 PM,71.1,54.0,55,30.01,10.0,ENE,8.1,-,N/A,,Clear,70,2013-02-06 21:56:00
4:56 PM,69.1,54.0,58,30.00,10.0,East,6.9,-,N/A,,Clear,80,2013-02-06 22:56:00
5:56 PM,61.0,53.1,75,30.02,10.0,South,4.6,-,N/A,,Clear,190,2013-02-06 23:56:00
6:56 PM,63.0,57.0,81,30.03,10.0,Calm,Calm,-,N/A,,Mostly Cloudy,0,2013-02-07 00:56:00
7:56 PM,57.0,55.0,93,30.04,10.0,Calm,Calm,-,N/A,,Clear,0,2013-02-07 01:56:00
8:56 PM,55.0,53.1,93,30.03,10.0,Calm,Calm,-,N/A,,Clear,0,2013-02-07 02:56:00
9:56 PM,55.9,54.0,93,30.02,10.0,South,4.6,-,N/A,,Clear,190,2013-02-07 03:56:00
10:56 PM,57.0,55.0,93,30.04,10.0,Calm,Calm,-,N/A,,Scattered Clouds,0,2013-02-07 04:56:00
11:56 PM,59.0,55.9,90,30.01,10.0,NE,3.5,-,0.00,,Overcast,40,2013-02-07 05:56:00